Etusivu
METAR-TAF:

METAR-TAF

Lentoasemat :

Litchfield Municipal Airport

Litchfield, Minnesota, Yhdysvallat

Leveyspiiri: 45-05-50N, Pituuspiiri: 094-30-26W, korkeus merenpinnasta: 348 m

Tämänhetkinen sää

Tämä raportti tehtiin 14 minuuttia sitten, kello 21.56 UTC
Tuuli 6 kn etelästä/kaakosta
Lämpötila 7°C
Kosteus 53%
Ilmanpaine 1014 hPa
Näkyvyys: 16.1 km

METAR: KLJF 162156Z AUTO 15006KT 10SM 07/M02 A2995 RMK AO2

Aika: 16:10 (22:10 UTC)


TAF: puuttuu

Säähavainnot ja -ennusteet yli 4000 lentoasemalta (METAR- ja TAF-raportit).

Käytössä olevat sääasemat on merkitty karttaan keltaisilla ja punaisilla pisteillä.

Aseta hiiri pisteen päälle nähdäksesi sääaseman nimen.

Klikkaa sitten nähdäksesi säähavainnot ja -ennusteet.

Kartan vaihtaminen: klikkaa mustalla rastilla varustettuja vihreitä pisteitä, niin voit zoomata sisään; viivalla varustettua vihreää pistettä, niin voit zoomata ulos tai vihreitä nuolia, niin pääset viereisille kartoille.


METAR-TAF: